This demonstration page uses our WeatherBlox Daily Observations layout. Learn more.

Left ArrowRight Arrow

40.92501, -98.34201

Hourly Observations for August 21, 2022

Temp ( °F °C ) Dew Point ( °F °C ) Humidity (%) Winds ( mph kmh ) Pressure ( in mb ) Visibility ( mi km ) Precip ( " mm )
12:53 am 00:53 Clear 60 15.6 54 12.2 80 80 WNW 3 6 30.10 1019 10 16 0.00 0.00
1:53 am 01:53 Clear 59 15 54 12.2 83 83 Calm 30.11 1020 10 16 0.00 0.00
2:53 am 02:53 Clear 59 15 54 12.2 83 83 NNW 3 6 30.10 1019 10 16 0.00 0.00
3:53 am 03:53 Clear 58 14.4 53 11.7 84 84 Calm 30.10 1019 10 16 0.00 0.00
4:53 am 04:53 Clear 58 14.4 54 12.2 87 87 W 3 6 30.11 1020 10 16 0.00 0.00
5:53 am 05:53 Clear 57 13.9 53 11.7 87 87 Calm 30.11 1020 10 16 0.00 0.00
6:53 am 06:53 Sunny 55 12.8 52 11.1 89 89 WNW 6 9 30.13 1020 9 14 0.00 0.00
7:53 am 07:53 Sunny 60 15.6 55 12.8 83 83 Calm 30.13 1020 10 16 0.00 0.00
8:53 am 08:53 Sunny 67 19.4 58 14.4 73 73 W 3 6 30.15 1021 10 16 0.00 0.00
9:53 am 09:53 Sunny 73 22.8 60 15.6 64 64 W 5 7 30.15 1021 10 16 0.00 0.00
10:53 am 10:53 Sunny 76 24.4 60 15.6 58 58 SSE 3 6 30.15 1021 10 16 0.00 0.00
11:53 am 11:53 Sunny 79 26.1 58 14.4 49 49 SSE 5 7 30.15 1021 10 16 0.00 0.00
12:53 pm 12:53 Partly Cloudy 80 26.7 58 14.4 47 47 ESE 6 9 30.14 1021 10 16 0.00 0.00
1:53 pm 13:53 Sunny 82 27.8 57 13.9 43 43 SE 8 13 30.12 1020 10 16 0.00 0.00
2:53 pm 14:53 Mostly Sunny 83 28.3 57 13.9 41 41 VRB 3 6 30.11 1020 10 16 0.00 0.00
3:53 pm 15:53 Sunny 84 28.9 58 14.4 41 41 VRB 6 9 30.09 1019 10 16 0.00 0.00
4:53 pm 16:53 Sunny 83 28.3 58 14.4 43 43 SE 6 9 30.08 1019 10 16 0.00 0.00
5:53 pm 17:53 Sunny 83 28.3 57 13.9 41 41 VRB 6 9 30.08 1019 10 16 0.00 0.00
6:53 pm 18:53 Sunny 82 27.8 58 14.4 44 44 SSE 8 13 30.08 1019 10 16 0.00 0.00
7:53 pm 19:53 Sunny 78 25.6 59 15 52 52 SSE 7 11 30.08 1019 10 16 0.00 0.00
8:53 pm 20:53 Clear 72 22.2 60 15.6 66 66 SSE 5 7 30.09 1019 10 16 0.00 0.00
9:53 pm 21:53 Clear 70 21.1 60 15.6 71 71 ESE 7 11 30.09 1019 10 16 0.00 0.00
10:53 pm 22:53 Clear 68 20 59 15 73 73 SE 5 7 30.09 1019 10 16 0.00 0.00
11:53 pm 23:53 Clear 66 18.9 58 14.4 75 75 SSE 5 7 30.09 1019 10 16 0.00 0.00

Powered by AerisWeather